Stündliche Wetter Abazivka

Heute, 21 April, Mittwoch

Zeit Temperatur Niederschläge Wind Luftdruck Luftfeuchtigkeit
00:00 +8°C° 0.3 mm 3 m/S 741 mmHg 94%
01:00 +8°C° 0.3 mm 3 m/S 741 mmHg 94%
02:00 +7°C° 0.3 mm 3 m/S 742 mmHg 94%
03:00 +6°C° 0.1 mm 4 m/S 742 mmHg 93%
04:00 +6°C° 0.1 mm 4 m/S 742 mmHg 92%
05:00 +6°C° 0.1 mm 5 m/S 743 mmHg 91%
06:00 +6°C° 0 mm 5 m/S 744 mmHg 86%
07:00 +7°C° 0 mm 5 m/S 744 mmHg 80%
08:00 +8°C° 0 mm 6 m/S 745 mmHg 74%
09:00 +8°C° 0 mm 6 m/S 745 mmHg 69%
10:00 +9°C° 0 mm 6 m/S 746 mmHg 64%
11:00 +10°C° 0 mm 6 m/S 746 mmHg 58%
12:00 +10°C° 0.1 mm 6 m/S 746 mmHg 57%
13:00 +10°C° 0.1 mm 5 m/S 746 mmHg 57%
14:00 +12°C° 0.1 mm 5 m/S 747 mmHg 56%
15:00 +12°C° 0.2 mm 5 m/S 747 mmHg 58%
16:00 +12°C° 0.2 mm 5 m/S 747 mmHg 60%
17:00 +11°C° 0.2 mm 4 m/S 747 mmHg 62%
18:00 +10°C° 0.1 mm 4 m/S 748 mmHg 66%
19:00 +9°C° 0.1 mm 3 m/S 748 mmHg 71%
20:00 +8°C° 0.1 mm 2 m/S 749 mmHg 76%
21:00 +7°C° 0 mm 2 m/S 749 mmHg 77%
22:00 +7°C° 0 mm 2 m/S 749 mmHg 78%
23:00 +7°C° 0 mm 2 m/S 749 mmHg 79%

Morgen, 22 April, Donnerstag

Zeit Temperatur Niederschläge Wind Luftdruck Luftfeuchtigkeit
00:00 +6°C° 0 mm 2 m/S 749 mmHg 80%
01:00 +6°C° 0 mm 2 m/S 750 mmHg 81%
02:00 +6°C° 0 mm 2 m/S 750 mmHg 82%
03:00 +6°C° 0 mm 2 m/S 750 mmHg 83%
04:00 +6°C° 0 mm 2 m/S 750 mmHg 84%
05:00 +5°C° 0 mm 3 m/S 750 mmHg 85%
06:00 +8°C° 0 mm 3 m/S 751 mmHg 78%
07:00 +10°C° 0 mm 3 m/S 751 mmHg 71%
08:00 +12°C° 0 mm 4 m/S 751 mmHg 65%
09:00 +13°C° 0 mm 4 m/S 751 mmHg 58%
10:00 +15°C° 0 mm 4 m/S 751 mmHg 52%
11:00 +16°C° 0 mm 5 m/S 751 mmHg 46%
12:00 +17°C° 0 mm 4 m/S 751 mmHg 46%
13:00 +17°C° 0 mm 4 m/S 751 mmHg 47%
14:00 +15°C° 0 mm 4 m/S 751 mmHg 47%
15:00 +15°C° 0 mm 4 m/S 751 mmHg 49%
16:00 +16°C° 0 mm 3 m/S 751 mmHg 50%
17:00 +16°C° 0 mm 3 m/S 751 mmHg 51%
18:00 +14°C° 0 mm 3 m/S 751 mmHg 55%
19:00 +13°C° 0 mm 3 m/S 751 mmHg 60%
20:00 +12°C° 0 mm 3 m/S 751 mmHg 64%
21:00 +11°C° 0 mm 3 m/S 751 mmHg 65%
22:00 +11°C° 0 mm 3 m/S 751 mmHg 67%
23:00 +11°C° 0 mm 4 m/S 751 mmHg 69%

übermorgen, 23 April, Freitag

Zeit Temperatur Niederschläge Wind Luftdruck Luftfeuchtigkeit
00:00 +10°C° 0 mm 3 m/S 751 mmHg 72%
01:00 +10°C° 0 mm 3 m/S 751 mmHg 74%
02:00 +10°C° 0 mm 3 m/S 750 mmHg 77%
03:00 +9°C° 0 mm 3 m/S 750 mmHg 81%
04:00 +7°C° 0 mm 4 m/S 750 mmHg 84%
05:00 +7°C° 0 mm 4 m/S 750 mmHg 88%
06:00 +8°C° 0 mm 5 m/S 750 mmHg 81%
07:00 +10°C° 0 mm 6 m/S 750 mmHg 74%
08:00 +11°C° 0 mm 6 m/S 750 mmHg 67%
09:00 +14°C° 0.1 mm 7 m/S 750 mmHg 62%
10:00 +15°C° 0.1 mm 7 m/S 749 mmHg 56%
11:00 +16°C° 0.1 mm 8 m/S 749 mmHg 51%
12:00 +16°C° 0.1 mm 8 m/S 749 mmHg 51%
13:00 +16°C° 0.1 mm 8 m/S 748 mmHg 51%
14:00 +16°C° 0.1 mm 9 m/S 748 mmHg 51%
15:00 +15°C° 0.8 mm 8 m/S 748 mmHg 57%
16:00 +13°C° 0.8 mm 8 m/S 747 mmHg 63%
17:00 +12°C° 0.8 mm 7 m/S 747 mmHg 69%
18:00 +11°C° 1 mm 6 m/S 747 mmHg 76%
19:00 +10°C° 1 mm 5 m/S 747 mmHg 82%
20:00 +8°C° 1 mm 4 m/S 748 mmHg 89%
21:00 +7°C° 1.1 mm 5 m/S 747 mmHg 90%
22:00 +6°C° 1.1 mm 5 m/S 747 mmHg 91%
23:00 +5°C° 1.1 mm 5 m/S 747 mmHg 92%

24 April, Samstag

Zeit Temperatur Niederschläge Wind Luftdruck Luftfeuchtigkeit
00:00 +5°C° 0.5 mm 5 m/S 747 mmHg 91%
01:00 +3°C° 0.5 mm 5 m/S 748 mmHg 89%
02:00 +4°C° 0.5 mm 4 m/S 748 mmHg 88%
03:00 +3°C° 0 mm 4 m/S 748 mmHg 90%
04:00 +3°C° 0 mm 3 m/S 748 mmHg 92%
05:00 +2°C° 0 mm 3 m/S 749 mmHg 93%
06:00 +4°C° 0 mm 3 m/S 749 mmHg 85%
07:00 +5°C° 0 mm 4 m/S 749 mmHg 76%
08:00 +6°C° 0 mm 4 m/S 749 mmHg 68%
09:00 +7°C° 0 mm 4 m/S 749 mmHg 60%
10:00 +9°C° 0 mm 5 m/S 749 mmHg 51%
11:00 +10°C° 0 mm 5 m/S 749 mmHg 43%
12:00 +10°C° 0 mm 5 m/S 749 mmHg 43%
13:00 +10°C° 0 mm 5 m/S 749 mmHg 42%
14:00 +10°C° 0 mm 6 m/S 749 mmHg 42%
15:00 +9°C° 0.2 mm 6 m/S 749 mmHg 50%
16:00 +8°C° 0.2 mm 6 m/S 749 mmHg 58%
17:00 +7°C° 0.2 mm 6 m/S 749 mmHg 65%
18:00 +6°C° 0.2 mm 5 m/S 749 mmHg 71%
19:00 +5°C° 0.2 mm 4 m/S 749 mmHg 77%
20:00 +4°C° 0.2 mm 3 m/S 750 mmHg 83%
21:00 +4°C° 0 mm 3 m/S 750 mmHg 84%
22:00 +3°C° 0 mm 3 m/S 750 mmHg 84%
23:00 +3°C° 0 mm 3 m/S 750 mmHg 85%

25 April, Sonntag

Zeit Temperatur Niederschläge Wind Luftdruck Luftfeuchtigkeit
00:00 +2°C° 0 mm 3 m/S 750 mmHg 85%
01:00 +2°C° 0 mm 3 m/S 750 mmHg 85%
02:00 +1°C° 0 mm 3 m/S 750 mmHg 85%
03:00 +1°C° 0 mm 3 m/S 750 mmHg 85%
04:00 +1°C° 0 mm 3 m/S 750 mmHg 86%
05:00 0°C° 0 mm 3 m/S 750 mmHg 87%
06:00 +2°C° 0 mm 3 m/S 750 mmHg 78%
07:00 +4°C° 0 mm 4 m/S 750 mmHg 70%
08:00 +5°C° 0 mm 4 m/S 750 mmHg 61%
09:00 +6°C° 0 mm 5 m/S 750 mmHg 55%
10:00 +7°C° 0 mm 5 m/S 750 mmHg 50%
11:00 +9°C° 0 mm 6 m/S 750 mmHg 44%
12:00 +9°C° 0.1 mm 6 m/S 750 mmHg 46%
13:00 +9°C° 0.1 mm 6 m/S 750 mmHg 48%
14:00 +9°C° 0.1 mm 7 m/S 750 mmHg 50%
15:00 +8°C° 0.1 mm 6 m/S 750 mmHg 53%
16:00 +8°C° 0.1 mm 6 m/S 750 mmHg 57%
17:00 +7°C° 0.1 mm 5 m/S 750 mmHg 61%
18:00 +6°C° 0 mm 4 m/S 750 mmHg 67%
19:00 +5°C° 0 mm 3 m/S 750 mmHg 74%
20:00 +5°C° 0 mm 2 m/S 750 mmHg 80%
21:00 +4°C° 0 mm 2 m/S 750 mmHg 83%
22:00 +4°C° 0 mm 2 m/S 749 mmHg 85%
23:00 +4°C° 0 mm 2 m/S 749 mmHg 87%

26 April, Montag

Zeit Temperatur Niederschläge Wind Luftdruck Luftfeuchtigkeit
00:00 +4°C° 0 mm 2 m/S 749 mmHg 87%
01:00 +3°C° 0 mm 2 m/S 749 mmHg 87%
02:00 +3°C° 0 mm 2 m/S 749 mmHg 87%
03:00 +3°C° 0 mm 2 m/S 749 mmHg 86%
04:00 +3°C° 0 mm 2 m/S 748 mmHg 85%
05:00 +2°C° 0 mm 2 m/S 748 mmHg 84%
06:00 +4°C° 0 mm 2 m/S 748 mmHg 76%
07:00 +4°C° 0 mm 3 m/S 748 mmHg 69%
08:00 +5°C° 0 mm 3 m/S 749 mmHg 61%
09:00 +7°C° 0.1 mm 3 m/S 748 mmHg 55%
10:00 +8°C° 0.1 mm 3 m/S 748 mmHg 50%
11:00 +8°C° 0.1 mm 4 m/S 748 mmHg 44%
12:00 +8°C° 0.2 mm 4 m/S 748 mmHg 44%
13:00 +8°C° 0.2 mm 4 m/S 748 mmHg 45%
14:00 +8°C° 0.2 mm 5 m/S 748 mmHg 45%
15:00 +8°C° 0.3 mm 4 m/S 748 mmHg 49%
16:00 +7°C° 0.3 mm 4 m/S 748 mmHg 53%
17:00 +7°C° 0.3 mm 4 m/S 748 mmHg 56%
18:00 +7°C° 0 mm 3 m/S 748 mmHg 62%
19:00 +4°C° 0 mm 3 m/S 748 mmHg 68%
20:00 +3°C° 0 mm 3 m/S 748 mmHg 73%
21:00 +4°C° 0 mm 2 m/S 748 mmHg 75%
22:00 +3°C° 0 mm 2 m/S 748 mmHg 76%
23:00 +3°C° 0 mm 2 m/S 749 mmHg 78%
Mehr zeigen

Wir brauchen deine Erlaubnis

Meteoprog und unser Service Anbieter werden persönliche Daten aufbewahren, so wie Cookies, Geräte Bezeichnung oder ähnliche Technologien von deinem Gerät und Prozess, so wie Persönliche Daten Inhalte und Werbungen, genauso wie social Media und den Verkehr zu analysieren.

  • Aufbewahrung und/oder Zugang zu deiner Geräte Informationen.

    Cookies, Geräte Bezeichnung oder andere Informationen, können aufbewahrt oder Zugang zu deinem Gerät erhalten, für den Grund, der oben angegeben wird.

  • Personalisierte Werbung und Inhalte, Messungen, Einblick in das Publikum und Produkt Entwicklung.

    Werbungen und Inhalte können personalisiert werden, basierend auf ein Profil. Mehr Daten können besser personalisierte Werbungen und Inhalte hinzufügen. Werbung und Inhalte können gezeigt und gemessen werden. Einblicke über das Publikum, welche die Werbung gesehen haben und den Inhalt, können abgeleitet werden. So wie Daten können genutzt werden, um es zu verbessern oder die Benutzer Erfahrung zu verbessern das System und die Software.

Wenn du “Ich stimme zu” klickst, erlaubst du uns, die Cookies zu benutzen die Geräte Bezeichnung, den Web oder ähnliche Technologien zu benutzen. Deine Settings, können in deinem Gerät bei deinem Browser geändert werden.

Für den bestimmten Zweck, berechtigten Interessen beruhen darauf, mehr als auf den Inhalt. Du kannst mehr darüber in unseren Privaten und Cookie Politik lesen.